Wetterdaten: Woche 30.05.16 - 05.06.16 (KW22)
Datum Zeit Temp. I. Temp. A. Feuchte I. Feuchte A. Luftdruck Regen Wind Richtung Sonnenschein UV Solar Taupunkt Windchill Windben
30.05.2016 00:00 24,4 C 14,7 C 60 % 95 % 1001,9 hPa 0,2 l/m 0,0 km/h (0 Bft) N 0,00 h 0,0 UV-I 0 W/m 13,9 C 14,7 C 0,1 km/h (0 Bft)
30.05.2016 01:00 24,4 C 14,3 C 60 % 95 % 1001,2 hPa 0,0 l/m 0,1 km/h (0 Bft) N-NW 0,00 h 0,0 UV-I 0 W/m 13,6 C 14,3 C 0,3 km/h (0 Bft)
30.05.2016 02:00 24,3 C 14,0 C 61 % 96 % 1001,8 hPa 0,0 l/m 1,2 km/h (1 Bft) S 0,00 h 0,0 UV-I 0 W/m 13,3 C 14,0 C 3,2 km/h (1 Bft)
30.05.2016 03:00 24,3 C 14,0 C 61 % 95 % 1002,0 hPa 0,0 l/m 0,6 km/h (0 Bft) S-SO 0,00 h 0,0 UV-I 0 W/m 13,3 C 14,0 C 1,7 km/h (1 Bft)
30.05.2016 04:00 24,3 C 14,0 C 60 % 95 % 1002,2 hPa 0,0 l/m 0,9 km/h (0 Bft) S 0,00 h 0,0 UV-I 0 W/m 13,3 C 14,0 C 2,9 km/h (1 Bft)
30.05.2016 05:00 24,2 C 14,1 C 59 % 96 % 1002,2 hPa 0,0 l/m 2,0 km/h (1 Bft) S 0,00 h 0,0 UV-I 9 W/m 13,4 C 14,0 C 5,7 km/h (1 Bft)
30.05.2016 06:00 24,2 C 14,2 C 59 % 95 % 1002,4 hPa 0,0 l/m 4,3 km/h (1 Bft) S 0,00 h 0,0 UV-I 54 W/m 13,3 C 13,9 C 9,6 km/h (2 Bft)
30.05.2016 07:00 24,1 C 14,6 C 58 % 93 % 1002,6 hPa 0,0 l/m 3,5 km/h (1 Bft) S 0,52 h 0,7 UV-I 167 W/m 13,5 C 14,5 C 8,7 km/h (2 Bft)
30.05.2016 08:00 24,0 C 14,8 C 57 % 92 % 1003,2 hPa 0,0 l/m 3,6 km/h (1 Bft) S 0,17 h 0,8 UV-I 123 W/m 13,4 C 14,6 C 8,7 km/h (2 Bft)
30.05.2016 09:00 24,3 C 15,4 C 57 % 89 % 1003,6 hPa 0,0 l/m 3,9 km/h (1 Bft) S 0,82 h 1,4 UV-I 213 W/m 13,7 C 15,2 C 8,0 km/h (2 Bft)
30.05.2016 10:00 24,4 C 15,0 C 57 % 92 % 1004,0 hPa 0,2 l/m 4,4 km/h (1 Bft) S 0,77 h 1,8 UV-I 224 W/m 13,7 C 14,7 C 9,6 km/h (2 Bft)
30.05.2016 11:00 24,3 C 15,8 C 56 % 87 % 1004,3 hPa 0,0 l/m 6,5 km/h (2 Bft) S 0,90 h 2,8 UV-I 367 W/m 13,7 C 15,1 C 12,7 km/h (3 Bft)
30.05.2016 12:00 24,3 C 15,8 C 55 % 87 % 1004,6 hPa 0,2 l/m 4,1 km/h (1 Bft) S 0,65 h 2,3 UV-I 256 W/m 13,6 C 15,5 C 9,8 km/h (2 Bft)
30.05.2016 13:00 24,4 C 15,7 C 56 % 87 % 1005,0 hPa 0,0 l/m 0,9 km/h (0 Bft) S-SO 0,88 h 3,1 UV-I 377 W/m 13,5 C 15,7 C 3,2 km/h (1 Bft)
30.05.2016 14:00 24,3 C 17,4 C 55 % 82 % 1005,0 hPa 0,0 l/m 2,9 km/h (1 Bft) S-SO 0,75 h 2,5 UV-I 285 W/m 14,3 C 17,3 C 6,8 km/h (2 Bft)
30.05.2016 15:00 24,0 C 17,9 C 56 % 79 % 1005,1 hPa 0,0 l/m 2,2 km/h (1 Bft) SO 0,92 h 2,7 UV-I 325 W/m 14,3 C 17,9 C 5,1 km/h (1 Bft)
30.05.2016 16:00 24,2 C 16,5 C 56 % 87 % 1005,3 hPa 2,6 l/m 1,5 km/h (1 Bft) S 0,02 h 1,1 UV-I 107 W/m 14,4 C 16,4 C 2,6 km/h (1 Bft)
30.05.2016 17:00 24,3 C 15,8 C 56 % 90 % 1005,5 hPa 0,0 l/m 0,0 km/h (0 Bft) N 0,08 h 1,1 UV-I 85 W/m 14,2 C 15,8 C 0,0 km/h (0 Bft)
30.05.2016 18:00 24,7 C 15,3 C 58 % 92 % 1005,8 hPa 0,6 l/m 2,1 km/h (1 Bft) S 0,00 h 0,5 UV-I 44 W/m 14,0 C 15,2 C 5,6 km/h (1 Bft)
30.05.2016 19:00 24,8 C 14,5 C 56 % 93 % 1006,4 hPa 0,2 l/m 0,5 km/h (0 Bft) S 0,00 h 0,0 UV-I 23 W/m 13,4 C 14,5 C 1,5 km/h (1 Bft)
30.05.2016 20:00 24,6 C 14,2 C 56 % 93 % 1006,6 hPa 0,0 l/m 0,2 km/h (0 Bft) O-NO 0,00 h 0,0 UV-I 10 W/m 13,1 C 14,2 C 0,7 km/h (0 Bft)
30.05.2016 21:00 24,8 C 13,8 C 57 % 95 % 1007,1 hPa 0,0 l/m 0,0 km/h (0 Bft) N 0,00 h 0,0 UV-I 0 W/m 13,0 C 13,8 C 0,1 km/h (0 Bft)
30.05.2016 22:00 24,5 C 13,3 C 57 % 96 % 1007,7 hPa 0,0 l/m 0,0 km/h (0 Bft) N 0,00 h 0,0 UV-I 0 W/m 12,7 C 13,3 C 0,0 km/h (0 Bft)
30.05.2016 23:00 24,4 C 13,0 C 57 % 97 % 1008,2 hPa 0,0 l/m 0,0 km/h (0 Bft) N 0,00 h 0,0 UV-I 0 W/m 12,5 C 13,0 C 0,0 km/h (0 Bft)
31.05.2016 00:00 24,3 C 12,4 C 57 % 97 % 1008,3 hPa 0,0 l/m 0,1 km/h (0 Bft) O-NO 0,00 h 0,0 UV-I 0 W/m 11,9 C 12,4 C 0,7 km/h (0 Bft)
31.05.2016 01:00 24,2 C 11,6 C 58 % 97 % 1008,6 hPa 0,0 l/m 0,0 km/h (0 Bft) N 0,00 h 0,0 UV-I 0 W/m 11,1 C 11,6 C 0,0 km/h (0 Bft)
31.05.2016 02:00 24,1 C 11,0 C 58 % 97 % 1008,6 hPa 0,0 l/m 0,0 km/h (0 Bft) N 0,00 h 0,0 UV-I 0 W/m 10,5 C 11,0 C 0,0 km/h (0 Bft)
31.05.2016 03:00 24,1 C 10,3 C 58 % 97 % 1008,6 hPa 0,0 l/m 0,0 km/h (0 Bft) N 0,00 h 0,0 UV-I 0 W/m 9,9 C 10,3 C 0,0 km/h (0 Bft)
31.05.2016 04:00 24,0 C 9,6 C 58 % 97 % 1008,9 hPa 0,0 l/m 0,0 km/h (0 Bft) N 0,00 h 0,0 UV-I 0 W/m 9,2 C 9,6 C 0,0 km/h (0 Bft)
31.05.2016 05:00 24,0 C 10,0 C 58 % 98 % 1009,5 hPa 0,0 l/m 0,0 km/h (0 Bft) N 0,00 h 0,0 UV-I 8 W/m 9,7 C 10,0 C 0,0 km/h (0 Bft)
31.05.2016 06:00 23,9 C 10,8 C 58 % 98 % 1009,7 hPa 0,0 l/m 0,0 km/h (0 Bft) N 0,00 h 0,0 UV-I 30 W/m 10,5 C 10,8 C 0,0 km/h (0 Bft)
31.05.2016 07:00 24,0 C 12,0 C 58 % 98 % 1009,7 hPa 0,0 l/m 0,0 km/h (0 Bft) N 0,43 h 0,7 UV-I 143 W/m 11,7 C 12,0 C 0,1 km/h (0 Bft)
31.05.2016 08:00 24,2 C 13,3 C 58 % 98 % 1010,1 hPa 0,0 l/m 0,0 km/h (0 Bft) N 0,73 h 1,0 UV-I 183 W/m 13,0 C 13,3 C 0,0 km/h (0 Bft)
31.05.2016 09:00 24,4 C 14,6 C 58 % 95 % 1010,3 hPa 0,0 l/m 0,1 km/h (0 Bft) S 0,93 h 1,4 UV-I 207 W/m 13,8 C 14,6 C 0,6 km/h (0 Bft)
31.05.2016 10:00 24,5 C 15,1 C 57 % 89 % 1010,5 hPa 0,0 l/m 0,4 km/h (0 Bft) S-SW 0,42 h 1,3 UV-I 146 W/m 13,4 C 15,1 C 1,5 km/h (1 Bft)
31.05.2016 11:00 24,4 C 15,4 C 57 % 90 % 1010,7 hPa 0,0 l/m 1,1 km/h (1 Bft) SW 0,62 h 2,0 UV-I 226 W/m 13,7 C 15,4 C 3,1 km/h (1 Bft)
31.05.2016 12:00 24,4 C 17,2 C 56 % 82 % 1010,8 hPa 0,0 l/m 1,5 km/h (1 Bft) S 1,00 h 4,6 UV-I 533 W/m 14,1 C 17,2 C 4,4 km/h (1 Bft)
31.05.2016 13:00 24,4 C 17,9 C 56 % 79 % 1010,7 hPa 0,2 l/m 1,7 km/h (1 Bft) S 1,00 h 4,2 UV-I 478 W/m 14,2 C 17,9 C 4,3 km/h (1 Bft)
31.05.2016 14:00 24,2 C 18,2 C 55 % 77 % 1010,5 hPa 0,0 l/m 3,4 km/h (1 Bft) S 0,48 h 1,8 UV-I 175 W/m 14,1 C 18,1 C 7,0 km/h (2 Bft)
31.05.2016 15:00 24,6 C 16,4 C 55 % 85 % 1010,7 hPa 0,4 l/m 1,2 km/h (1 Bft) W-SW 0,12 h 1,0 UV-I 86 W/m 13,9 C 16,4 C 2,6 km/h (1 Bft)
31.05.2016 16:00 24,6 C 17,8 C 54 % 81 % 1010,5 hPa 0,0 l/m 2,0 km/h (1 Bft) W-SW 1,00 h 2,4 UV-I 363 W/m 14,4 C 17,7 C 4,3 km/h (1 Bft)
31.05.2016 17:00 24,3 C 19,0 C 54 % 71 % 1010,2 hPa 0,0 l/m 4,1 km/h (1 Bft) W-NW 1,00 h 1,5 UV-I 294 W/m 13,6 C 18,9 C 8,6 km/h (2 Bft)
31.05.2016 18:00 24,4 C 18,5 C 54 % 71 % 1010,2 hPa 0,2 l/m 2,1 km/h (1 Bft) NW 0,13 h 0,6 UV-I 76 W/m 13,1 C 18,5 C 5,1 km/h (1 Bft)
31.05.2016 19:00 24,4 C 17,7 C 54 % 76 % 1010,3 hPa 0,0 l/m 0,1 km/h (0 Bft) NW 0,00 h 0,0 UV-I 17 W/m 13,4 C 17,7 C 0,5 km/h (0 Bft)
31.05.2016 20:00 24,3 C 16,6 C 54 % 81 % 1010,6 hPa 0,0 l/m 0,0 km/h (0 Bft) N 0,00 h 0,0 UV-I 8 W/m 13,2 C 16,6 C 0,0 km/h (0 Bft)
31.05.2016 21:00 24,7 C 15,8 C 55 % 87 % 1010,8 hPa 0,0 l/m 0,0 km/h (0 Bft) N 0,00 h 0,0 UV-I 0 W/m 13,6 C 15,8 C 0,0 km/h (0 Bft)
31.05.2016 22:00 24,7 C 15,3 C 55 % 89 % 1010,9 hPa 0,0 l/m 0,0 km/h (0 Bft) N 0,00 h 0,0 UV-I 0 W/m 13,5 C 15,3 C 0,0 km/h (0 Bft)
31.05.2016 23:00 24,5 C 14,6 C 56 % 92 % 1011,2 hPa 0,0 l/m 0,0 km/h (0 Bft) N 0,00 h 0,0 UV-I 0 W/m 13,3 C 14,6 C 0,0 km/h (0 Bft)
01.06.2016 00:00 24,3 C 14,5 C 56 % 94 % 1011,1 hPa 0,0 l/m 0,0 km/h (0 Bft) N 0,00 h 0,0 UV-I 0 W/m 13,5 C 14,5 C 0,0 km/h (0 Bft)
01.06.2016 01:00 24,2 C 14,3 C 57 % 94 % 1011,0 hPa 0,0 l/m 1,0 km/h (0 Bft) N-NW 0,00 h 0,0 UV-I 0 W/m 13,4 C 14,3 C 2,3 km/h (1 Bft)
01.06.2016 02:00 24,1 C 13,8 C 57 % 93 % 1011,0 hPa 0,0 l/m 0,6 km/h (0 Bft) NW 0,00 h 0,0 UV-I 0 W/m 12,7 C 13,8 C 2,0 km/h (1 Bft)
01.06.2016 03:00 24,1 C 13,6 C 57 % 94 % 1010,7 hPa 0,0 l/m 0,0 km/h (0 Bft) N 0,00 h 0,0 UV-I 0 W/m 12,7 C 13,6 C 0,0 km/h (0 Bft)
01.06.2016 04:00 24,0 C 13,3 C 57 % 95 % 1010,4 hPa 0,0 l/m 0,0 km/h (0 Bft) N 0,00 h 0,0 UV-I 0 W/m 12,5 C 13,3 C 0,1 km/h (0 Bft)
01.06.2016 05:00 24,0 C 12,6 C 57 % 96 % 1010,3 hPa 0,0 l/m 0,0 km/h (0 Bft) N 0,00 h 0,0 UV-I 13 W/m 12,0 C 12,6 C 0,0 km/h (0 Bft)
01.06.2016 06:00 23,9 C 12,8 C 57 % 97 % 1010,4 hPa 0,0 l/m 0,0 km/h (0 Bft) N 0,00 h 0,0 UV-I 48 W/m 12,3 C 12,8 C 0,0 km/h (0 Bft)
01.06.2016 07:00 23,9 C 13,9 C 57 % 96 % 1010,5 hPa 0,0 l/m 0,0 km/h (0 Bft) N 0,05 h 0,7 UV-I 102 W/m 13,2 C 13,9 C 0,0 km/h (0 Bft)
01.06.2016 08:00 23,9 C 14,9 C 57 % 92 % 1010,7 hPa 0,0 l/m 0,4 km/h (0 Bft) W-NW 0,10 h 0,7 UV-I 107 W/m 13,6 C 14,9 C 0,7 km/h (0 Bft)
01.06.2016 09:00 24,1 C 15,7 C 57 % 89 % 1010,6 hPa 0,0 l/m 1,7 km/h (1 Bft) W 0,40 h 1,1 UV-I 150 W/m 13,9 C 15,7 C 3,3 km/h (1 Bft)
01.06.2016 10:00 24,1 C 16,6 C 57 % 87 % 1010,6 hPa 0,0 l/m 0,6 km/h (0 Bft) N-NW 0,75 h 1,6 UV-I 207 W/m 14,4 C 16,6 C 1,6 km/h (1 Bft)
01.06.2016 11:00 24,3 C 18,3 C 57 % 80 % 1010,5 hPa 0,0 l/m 1,4 km/h (1 Bft) W-SW 1,00 h 4,0 UV-I 575 W/m 14,8 C 18,3 C 4,3 km/h (1 Bft)
01.06.2016 12:00 24,4 C 19,3 C 57 % 75 % 1010,1 hPa 0,0 l/m 2,7 km/h (1 Bft) S-SW 1,00 h 3,7 UV-I 464 W/m 14,7 C 19,2 C 5,8 km/h (2 Bft)
01.06.2016 13:00 24,4 C 20,3 C 56 % 71 % 1009,8 hPa 0,0 l/m 4,2 km/h (1 Bft) W-SW 1,00 h 4,8 UV-I 656 W/m 14,9 C 20,1 C 8,3 km/h (2 Bft)
01.06.2016 14:00 24,4 C 19,7 C 56 % 72 % 1009,4 hPa 0,0 l/m 5,8 km/h (2 Bft) W 1,00 h 2,4 UV-I 303 W/m 14,5 C 19,2 C 11,8 km/h (2 Bft)
01.06.2016 15:00 24,7 C 18,9 C 56 % 79 % 1009,3 hPa 0,0 l/m 6,8 km/h (2 Bft) W 1,00 h 2,4 UV-I 356 W/m 15,1 C 18,2 C 13,5 km/h (3 Bft)
01.06.2016 16:00 24,3 C 17,0 C 56 % 82 % 1009,7 hPa 4,6 l/m 8,1 km/h (2 Bft) W-SW 0,22 h 1,4 UV-I 95 W/m 13,9 C 15,7 C 15,7 km/h (3 Bft)
01.06.2016 17:00 24,4 C 12,8 C 57 % 93 % 1010,8 hPa 5,8 l/m 0,7 km/h (0 Bft) W-SW 0,00 h 0,0 UV-I 7 W/m 11,8 C 12,8 C 2,6 km/h (1 Bft)
01.06.2016 18:00 24,7 C 13,2 C 58 % 95 % 1010,9 hPa 0,2 l/m 0,8 km/h (0 Bft) W-NW 0,00 h 0,0 UV-I 31 W/m 12,4 C 13,2 C 2,2 km/h (1 Bft)
01.06.2016 19:00 24,9 C 13,1 C 58 % 96 % 1010,5 hPa 0,4 l/m 0,2 km/h (0 Bft) NW 0,00 h 0,0 UV-I 31 W/m 12,4 C 13,1 C 0,5 km/h (0 Bft)
01.06.2016 20:00 24,8 C 12,7 C 58 % 96 % 1010,2 hPa 0,0 l/m 0,0 km/h (0 Bft) N 0,00 h 0,0 UV-I 15 W/m 12,1 C 12,7 C 0,0 km/h (0 Bft)
01.06.2016 21:00 25,0 C 11,9 C 58 % 96 % 1010,5 hPa 0,0 l/m 0,0 km/h (0 Bft) N 0,00 h 0,0 UV-I 0 W/m 11,3 C 11,9 C 0,0 km/h (0 Bft)
01.06.2016 22:00 24,7 C 11,4 C 58 % 97 % 1011,0 hPa 0,2 l/m 0,0 km/h (0 Bft) N 0,00 h 0,0 UV-I 0 W/m 10,9 C 11,4 C 0,0 km/h (0 Bft)
01.06.2016 23:00 24,4 C 10,2 C 58 % 97 % 1011,1 hPa 0,0 l/m 0,0 km/h (0 Bft) N 0,00 h 0,0 UV-I 0 W/m 9,7 C 10,2 C 0,0 km/h (0 Bft)
02.06.2016 00:00 24,3 C 10,1 C 59 % 98 % 1011,0 hPa 0,0 l/m 0,0 km/h (0 Bft) N 0,00 h 0,0 UV-I 0 W/m 9,8 C 10,1 C 0,0 km/h (0 Bft)
02.06.2016 01:00 24,2 C 10,5 C 59 % 98 % 1010,8 hPa 0,0 l/m 0,0 km/h (0 Bft) N 0,00 h 0,0 UV-I 0 W/m 10,2 C 10,5 C 0,0 km/h (0 Bft)
02.06.2016 02:00 24,2 C 10,9 C 59 % 98 % 1010,5 hPa 0,0 l/m 0,0 km/h (0 Bft) N 0,00 h 0,0 UV-I 0 W/m 10,6 C 10,9 C 0,0 km/h (0 Bft)
02.06.2016 03:00 24,2 C 11,2 C 59 % 98 % 1010,3 hPa 0,0 l/m 0,0 km/h (0 Bft) N 0,00 h 0,0 UV-I 0 W/m 10,9 C 11,2 C 0,0 km/h (0 Bft)
02.06.2016 04:00 24,1 C 11,4 C 58 % 98 % 1010,2 hPa 0,0 l/m 0,0 km/h (0 Bft) N 0,00 h 0,0 UV-I 0 W/m 11,0 C 11,4 C 0,1 km/h (0 Bft)
02.06.2016 05:00 24,1 C 11,5 C 59 % 98 % 1010,2 hPa 0,0 l/m 0,1 km/h (0 Bft) N-NO 0,00 h 0,0 UV-I 12 W/m 11,1 C 11,5 C 0,3 km/h (0 Bft)
02.06.2016 06:00 24,1 C 11,8 C 59 % 98 % 1010,0 hPa 0,0 l/m 0,2 km/h (0 Bft) N-NO 0,00 h 0,0 UV-I 51 W/m 11,5 C 11,8 C 0,6 km/h (0 Bft)
02.06.2016 07:00 24,1 C 12,3 C 59 % 98 % 1010,1 hPa 0,0 l/m 0,4 km/h (0 Bft) N-NO 0,00 h 0,5 UV-I 82 W/m 12,1 C 12,3 C 0,9 km/h (0 Bft)
02.06.2016 08:00 24,1 C 12,9 C 59 % 98 % 1010,3 hPa 0,0 l/m 0,1 km/h (0 Bft) NW 0,00 h 0,7 UV-I 107 W/m 12,6 C 12,9 C 0,1 km/h (0 Bft)
02.06.2016 09:00 24,4 C 13,7 C 59 % 96 % 1010,3 hPa 0,0 l/m 0,2 km/h (0 Bft) N-NW 0,28 h 1,0 UV-I 139 W/m 13,1 C 13,7 C 0,5 km/h (0 Bft)
02.06.2016 10:00 24,4 C 14,3 C 58 % 94 % 1010,2 hPa 0,0 l/m 0,4 km/h (0 Bft) N-NW 0,45 h 1,2 UV-I 152 W/m 13,2 C 14,3 C 0,9 km/h (0 Bft)
02.06.2016 11:00 24,3 C 15,6 C 58 % 90 % 1010,1 hPa 0,0 l/m 0,9 km/h (0 Bft) W 1,00 h 2,9 UV-I 338 W/m 13,9 C 15,6 C 2,0 km/h (1 Bft)
02.06.2016 12:00 24,4 C 17,5 C 59 % 83 % 1009,9 hPa 0,0 l/m 2,1 km/h (1 Bft) W-NW 1,00 h 4,2 UV-I 518 W/m 14,5 C 17,5 C 4,1 km/h (1 Bft)
02.06.2016 13:00 24,3 C 18,2 C 58 % 80 % 1009,6 hPa 0,0 l/m 2,3 km/h (1 Bft) N-NO 1,00 h 4,3 UV-I 488 W/m 14,7 C 18,2 C 4,4 km/h (1 Bft)
02.06.2016 14:00 24,6 C 19,0 C 58 % 75 % 1009,4 hPa 0,0 l/m 1,3 km/h (1 Bft) O-SO 0,75 h 3,6 UV-I 483 W/m 14,4 C 19,0 C 3,2 km/h (1 Bft)
02.06.2016 15:00 24,8 C 20,2 C 57 % 69 % 1009,1 hPa 0,0 l/m 1,5 km/h (1 Bft) S 1,00 h 4,2 UV-I 670 W/m 14,4 C 20,2 C 3,8 km/h (1 Bft)
02.06.2016 16:00 24,4 C 17,9 C 56 % 75 % 1009,3 hPa 0,0 l/m 5,2 km/h (1 Bft) S 0,27 h 1,5 UV-I 162 W/m 13,4 C 17,4 C 10,3 km/h (2 Bft)
02.06.2016 17:00 24,3 C 17,0 C 56 % 82 % 1009,9 hPa 0,0 l/m 1,9 km/h (1 Bft) NW 0,55 h 1,4 UV-I 262 W/m 13,9 C 17,0 C 4,0 km/h (1 Bft)
02.06.2016 18:00 23,9 C 15,9 C 57 % 90 % 1009,9 hPa 0,8 l/m 0,0 km/h (0 Bft) N 0,00 h 0,6 UV-I 67 W/m 14,3 C 15,9 C 0,0 km/h (0 Bft)
02.06.2016 19:00 23,8 C 15,6 C 58 % 91 % 1009,9 hPa 0,0 l/m 0,1 km/h (0 Bft) N 0,00 h 0,5 UV-I 40 W/m 14,1 C 15,6 C 0,2 km/h (0 Bft)
02.06.2016 20:00 24,4 C 15,3 C 58 % 91 % 1010,0 hPa 0,0 l/m 0,1 km/h (0 Bft) NW 0,00 h 0,0 UV-I 17 W/m 13,9 C 15,3 C 0,2 km/h (0 Bft)
02.06.2016 21:00 24,6 C 14,3 C 58 % 94 % 1010,5 hPa 0,0 l/m 0,0 km/h (0 Bft) NW 0,00 h 0,0 UV-I 5 W/m 13,3 C 14,3 C 0,3 km/h (0 Bft)
02.06.2016 22:00 24,2 C 13,2 C 58 % 96 % 1010,7 hPa 0,0 l/m 0,0 km/h (0 Bft) N 0,00 h 0,0 UV-I 0 W/m 12,5 C 13,2 C 0,0 km/h (0 Bft)
02.06.2016 23:00 24,1 C 12,1 C 58 % 96 % 1010,7 hPa 0,0 l/m 0,0 km/h (0 Bft) N 0,00 h 0,0 UV-I 0 W/m 11,5 C 12,1 C 0,0 km/h (0 Bft)
03.06.2016 00:00 24,1 C 12,0 C 59 % 97 % 1010,6 hPa 0,0 l/m 0,0 km/h (0 Bft) N 0,00 h 0,0 UV-I 0 W/m 11,5 C 12,0 C 0,0 km/h (0 Bft)
03.06.2016 01:00 24,0 C 11,9 C 59 % 98 % 1010,5 hPa 0,0 l/m 0,0 km/h (0 Bft) N 0,00 h 0,0 UV-I 0 W/m 11,5 C 11,9 C 0,0 km/h (0 Bft)
03.06.2016 02:00 24,0 C 11,6 C 59 % 98 % 1010,4 hPa 0,0 l/m 0,0 km/h (0 Bft) N 0,00 h 0,0 UV-I 0 W/m 11,3 C 11,6 C 0,0 km/h (0 Bft)
03.06.2016 03:00 24,0 C 11,4 C 59 % 98 % 1010,2 hPa 0,2 l/m 0,0 km/h (0 Bft) N 0,00 h 0,0 UV-I 0 W/m 11,1 C 11,4 C 0,0 km/h (0 Bft)
03.06.2016 04:00 23,9 C 11,2 C 58 % 98 % 1009,9 hPa 0,0 l/m 0,0 km/h (0 Bft) N 0,00 h 0,0 UV-I 0 W/m 10,9 C 11,2 C 0,0 km/h (0 Bft)
03.06.2016 05:00 23,8 C 11,4 C 59 % 98 % 1010,0 hPa 0,4 l/m 0,0 km/h (0 Bft) N 0,00 h 0,0 UV-I 7 W/m 11,1 C 11,4 C 0,0 km/h (0 Bft)
03.06.2016 06:00 23,9 C 11,9 C 59 % 98 % 1009,9 hPa 1,4 l/m 0,0 km/h (0 Bft) N 0,00 h 0,0 UV-I 19 W/m 11,6 C 11,9 C 0,0 km/h (0 Bft)
03.06.2016 07:00 23,9 C 12,4 C 59 % 98 % 1009,8 hPa 0,6 l/m 0,0 km/h (0 Bft) N 0,00 h 0,5 UV-I 46 W/m 12,1 C 12,4 C 0,0 km/h (0 Bft)
03.06.2016 08:00 23,9 C 13,0 C 59 % 98 % 1009,9 hPa 0,8 l/m 0,0 km/h (0 Bft) N 0,00 h 0,5 UV-I 59 W/m 12,7 C 13,0 C 0,0 km/h (0 Bft)
03.06.2016 09:00 23,9 C 13,3 C 59 % 98 % 1009,9 hPa 1,0 l/m 0,0 km/h (0 Bft) N 0,00 h 0,7 UV-I 65 W/m 13,0 C 13,3 C 0,1 km/h (0 Bft)
03.06.2016 10:00 24,1 C 13,7 C 59 % 98 % 1009,8 hPa 0,8 l/m 0,6 km/h (0 Bft) W-NW 0,00 h 0,6 UV-I 54 W/m 13,4 C 13,7 C 1,6 km/h (1 Bft)
03.06.2016 11:00 24,2 C 13,9 C 59 % 98 % 1010,0 hPa 2,4 l/m 0,3 km/h (0 Bft) NW 0,00 h 0,9 UV-I 76 W/m 13,6 C 13,9 C 0,9 km/h (0 Bft)
03.06.2016 12:00 24,2 C 14,9 C 59 % 97 % 1009,9 hPa 0,8 l/m 0,9 km/h (0 Bft) NW 0,73 h 2,6 UV-I 302 W/m 14,3 C 14,9 C 2,1 km/h (1 Bft)
03.06.2016 13:00 24,4 C 16,2 C 59 % 90 % 1009,8 hPa 0,0 l/m 2,3 km/h (1 Bft) W-NW 1,00 h 3,4 UV-I 390 W/m 14,6 C 16,2 C 4,5 km/h (1 Bft)
03.06.2016 14:00 24,4 C 16,5 C 59 % 88 % 1009,6 hPa 0,0 l/m 2,2 km/h (1 Bft) N 1,00 h 3,1 UV-I 362 W/m 14,6 C 16,5 C 4,9 km/h (1 Bft)
03.06.2016 15:00 24,8 C 18,0 C 59 % 82 % 1009,2 hPa 0,0 l/m 1,4 km/h (1 Bft) N-NW 1,00 h 4,0 UV-I 540 W/m 14,9 C 18,0 C 3,6 km/h (1 Bft)
03.06.2016 16:00 24,6 C 17,6 C 57 % 83 % 1009,2 hPa 0,0 l/m 2,8 km/h (1 Bft) S 0,85 h 2,7 UV-I 403 W/m 14,6 C 17,5 C 5,8 km/h (2 Bft)
03.06.2016 17:00 24,7 C 16,8 C 58 % 86 % 1009,2 hPa 1,0 l/m 0,9 km/h (0 Bft) S-SO 0,10 h 0,8 UV-I 120 W/m 14,5 C 16,8 C 1,7 km/h (1 Bft)
03.06.2016 18:00 24,6 C 16,6 C 59 % 89 % 1009,3 hPa 0,0 l/m 0,0 km/h (0 Bft) N 0,33 h 0,7 UV-I 128 W/m 14,7 C 16,6 C 0,0 km/h (0 Bft)
03.06.2016 19:00 24,7 C 16,6 C 60 % 87 % 1009,4 hPa 0,0 l/m 0,0 km/h (0 Bft) N 0,00 h 0,5 UV-I 58 W/m 14,4 C 16,6 C 0,0 km/h (0 Bft)
03.06.2016 20:00 24,7 C 16,1 C 60 % 91 % 1009,8 hPa 0,2 l/m 0,3 km/h (0 Bft) NO 0,00 h 0,0 UV-I 23 W/m 14,7 C 16,1 C 0,8 km/h (0 Bft)
03.06.2016 21:00 25,0 C 14,8 C 59 % 94 % 1010,0 hPa 0,0 l/m 0,0 km/h (0 Bft) N 0,00 h 0,0 UV-I 0 W/m 13,8 C 14,8 C 0,0 km/h (0 Bft)
03.06.2016 22:00 24,9 C 14,5 C 59 % 96 % 1010,4 hPa 0,0 l/m 0,0 km/h (0 Bft) O-NO 0,00 h 0,0 UV-I 0 W/m 13,8 C 14,5 C 0,3 km/h (0 Bft)
03.06.2016 23:00 24,7 C 14,4 C 59 % 96 % 1010,7 hPa 0,0 l/m 0,0 km/h (0 Bft) N 0,00 h 0,0 UV-I 0 W/m 13,7 C 14,4 C 0,0 km/h (0 Bft)
04.06.2016 00:00 24,7 C 14,3 C 60 % 96 % 1010,9 hPa 0,0 l/m 0,0 km/h (0 Bft) N 0,00 h 0,0 UV-I 0 W/m 13,7 C 14,3 C 0,0 km/h (0 Bft)
04.06.2016 01:00 24,5 C 14,2 C 60 % 97 % 1010,9 hPa 0,0 l/m 0,0 km/h (0 Bft) N 0,00 h 0,0 UV-I 0 W/m 13,7 C 14,2 C 0,0 km/h (0 Bft)
04.06.2016 02:00 24,3 C 13,9 C 60 % 97 % 1010,9 hPa 0,0 l/m 0,0 km/h (0 Bft) N 0,00 h 0,0 UV-I 0 W/m 13,4 C 13,9 C 0,1 km/h (0 Bft)
04.06.2016 03:00 24,2 C 12,8 C 60 % 97 % 1010,9 hPa 0,0 l/m 0,0 km/h (0 Bft) NO 0,00 h 0,0 UV-I 0 W/m 12,4 C 12,8 C 0,1 km/h (0 Bft)
04.06.2016 04:00 24,3 C 12,3 C 60 % 98 % 1010,8 hPa 0,0 l/m 0,0 km/h (0 Bft) N 0,00 h 0,0 UV-I 0 W/m 12,0 C 12,3 C 0,0 km/h (0 Bft)
04.06.2016 05:00 24,1 C 12,4 C 60 % 98 % 1011,0 hPa 0,0 l/m 0,0 km/h (0 Bft) N 0,00 h 0,0 UV-I 10 W/m 12,1 C 12,4 C 0,0 km/h (0 Bft)
04.06.2016 06:00 24,2 C 12,9 C 60 % 98 % 1011,2 hPa 0,0 l/m 0,0 km/h (0 Bft) N 0,00 h 0,0 UV-I 32 W/m 12,6 C 12,9 C 0,0 km/h (0 Bft)
04.06.2016 07:00 24,5 C 13,5 C 60 % 98 % 1011,5 hPa 0,0 l/m 0,0 km/h (0 Bft) N-NW 0,00 h 0,6 UV-I 93 W/m 13,2 C 13,5 C 0,1 km/h (0 Bft)
04.06.2016 08:00 24,6 C 15,1 C 60 % 96 % 1011,6 hPa 0,0 l/m 0,1 km/h (0 Bft) O-SO 0,88 h 1,4 UV-I 259 W/m 14,5 C 15,1 C 0,2 km/h (0 Bft)
04.06.2016 09:00 24,6 C 17,6 C 60 % 87 % 1011,8 hPa 0,0 l/m 0,0 km/h (0 Bft) O-SO 1,00 h 2,3 UV-I 453 W/m 15,4 C 17,6 C 0,3 km/h (0 Bft)
04.06.2016 10:00 24,7 C 18,0 C 60 % 82 % 1011,9 hPa 0,0 l/m 0,6 km/h (0 Bft) O-SO 1,00 h 2,6 UV-I 334 W/m 14,9 C 18,0 C 1,7 km/h (1 Bft)
04.06.2016 11:00 24,2 C 19,3 C 59 % 76 % 1012,0 hPa 0,0 l/m 0,7 km/h (0 Bft) SO 1,00 h 4,1 UV-I 537 W/m 14,9 C 19,3 C 2,5 km/h (1 Bft)
04.06.2016 12:00 24,4 C 19,1 C 58 % 76 % 1012,1 hPa 0,0 l/m 3,0 km/h (1 Bft) W-SW 1,00 h 3,1 UV-I 338 W/m 14,7 C 19,1 C 5,7 km/h (1 Bft)
04.06.2016 13:00 24,7 C 20,0 C 58 % 76 % 1011,9 hPa 0,0 l/m 1,0 km/h (0 Bft) W-SW 1,00 h 4,3 UV-I 504 W/m 15,5 C 19,9 C 2,3 km/h (1 Bft)
04.06.2016 14:00 24,8 C 21,2 C 58 % 72 % 1011,5 hPa 0,0 l/m 2,7 km/h (1 Bft) N 1,00 h 4,8 UV-I 614 W/m 15,9 C 21,1 C 5,6 km/h (1 Bft)
04.06.2016 15:00 24,6 C 21,5 C 57 % 69 % 1011,2 hPa 0,0 l/m 3,0 km/h (1 Bft) N-NO 1,00 h 3,3 UV-I 453 W/m 15,4 C 21,4 C 6,3 km/h (2 Bft)
04.06.2016 16:00 24,4 C 20,9 C 57 % 71 % 1011,0 hPa 0,0 l/m 1,9 km/h (1 Bft) O-NO 1,00 h 2,1 UV-I 297 W/m 15,5 C 20,9 C 5,1 km/h (1 Bft)
04.06.2016 17:00 24,8 C 20,5 C 58 % 72 % 1010,8 hPa 0,0 l/m 1,1 km/h (1 Bft) SO 0,98 h 1,4 UV-I 187 W/m 15,2 C 20,5 C 2,6 km/h (1 Bft)
04.06.2016 18:00 24,9 C 20,7 C 59 % 69 % 1010,7 hPa 0,0 l/m 4,1 km/h (1 Bft) N-NO 0,37 h 0,8 UV-I 150 W/m 14,7 C 20,6 C 7,5 km/h (2 Bft)
04.06.2016 19:00 24,8 C 19,6 C 59 % 73 % 1011,0 hPa 0,0 l/m 1,0 km/h (0 Bft) O-NO 0,00 h 0,5 UV-I 67 W/m 14,6 C 19,6 C 1,9 km/h (1 Bft)
04.06.2016 20:00 24,8 C 19,0 C 60 % 78 % 1011,4 hPa 0,0 l/m 0,0 km/h (0 Bft) N 0,00 h 0,0 UV-I 30 W/m 15,1 C 19,0 C 0,1 km/h (0 Bft)
04.06.2016 21:00 25,0 C 18,1 C 60 % 84 % 1012,2 hPa 0,0 l/m 0,0 km/h (0 Bft) N 0,00 h 0,0 UV-I 5 W/m 15,3 C 18,1 C 0,0 km/h (0 Bft)
04.06.2016 22:00 25,1 C 17,4 C 60 % 87 % 1012,9 hPa 0,0 l/m 0,0 km/h (0 Bft) N 0,00 h 0,0 UV-I 0 W/m 15,3 C 17,4 C 0,0 km/h (0 Bft)
04.06.2016 23:00 24,8 C 17,0 C 60 % 88 % 1012,9 hPa 0,0 l/m 0,5 km/h (0 Bft) N-NO 0,00 h 0,0 UV-I 0 W/m 15,1 C 17,0 C 1,5 km/h (1 Bft)
05.06.2016 00:00 24,6 C 16,3 C 61 % 90 % 1013,1 hPa 0,0 l/m 0,6 km/h (0 Bft) NO 0,00 h 0,0 UV-I 0 W/m 14,7 C 16,3 C 1,9 km/h (1 Bft)
05.06.2016 01:00 24,4 C 15,8 C 61 % 93 % 1013,2 hPa 0,0 l/m 0,0 km/h (0 Bft) N 0,00 h 0,0 UV-I 0 W/m 14,6 C 15,8 C 0,1 km/h (0 Bft)
05.06.2016 02:00 24,4 C 15,2 C 61 % 95 % 1013,2 hPa 0,0 l/m 0,1 km/h (0 Bft) O-NO 0,00 h 0,0 UV-I 0 W/m 14,3 C 15,2 C 0,3 km/h (0 Bft)
05.06.2016 03:00 24,3 C 14,8 C 61 % 95 % 1013,1 hPa 0,0 l/m 0,0 km/h (0 Bft) N-NW 0,00 h 0,0 UV-I 0 W/m 14,0 C 14,8 C 0,3 km/h (0 Bft)
05.06.2016 04:00 24,3 C 14,5 C 61 % 95 % 1013,2 hPa 0,0 l/m 0,0 km/h (0 Bft) N 0,00 h 0,0 UV-I 0 W/m 13,7 C 14,5 C 0,0 km/h (0 Bft)
05.06.2016 05:00 24,3 C 14,3 C 62 % 96 % 1013,4 hPa 0,0 l/m 0,0 km/h (0 Bft) N 0,00 h 0,0 UV-I 20 W/m 13,7 C 14,3 C 0,0 km/h (0 Bft)
05.06.2016 06:00 24,3 C 14,8 C 62 % 95 % 1013,8 hPa 0,0 l/m 0,5 km/h (0 Bft) SO 0,00 h 0,0 UV-I 65 W/m 14,1 C 14,8 C 0,9 km/h (0 Bft)
05.06.2016 07:00 24,5 C 16,1 C 62 % 93 % 1014,4 hPa 0,0 l/m 0,7 km/h (0 Bft) W 0,30 h 0,7 UV-I 156 W/m 14,9 C 16,1 C 2,0 km/h (1 Bft)
05.06.2016 08:00 24,7 C 17,0 C 61 % 88 % 1014,6 hPa 0,0 l/m 0,8 km/h (0 Bft) W-SW 0,85 h 1,3 UV-I 230 W/m 15,0 C 17,0 C 1,9 km/h (1 Bft)
05.06.2016 09:00 24,7 C 18,1 C 60 % 82 % 1015,0 hPa 0,0 l/m 0,2 km/h (0 Bft) S 1,00 h 2,0 UV-I 305 W/m 15,0 C 18,1 C 0,9 km/h (0 Bft)
05.06.2016 10:00 24,7 C 20,1 C 60 % 74 % 1015,0 hPa 0,0 l/m 0,3 km/h (0 Bft) W-SW 1,00 h 3,4 UV-I 558 W/m 15,4 C 20,1 C 1,7 km/h (1 Bft)
05.06.2016 11:00 24,5 C 21,1 C 58 % 70 % 1015,0 hPa 0,0 l/m 1,8 km/h (1 Bft) S 1,00 h 4,1 UV-I 577 W/m 15,4 C 21,1 C 4,2 km/h (1 Bft)
05.06.2016 12:00 24,3 C 22,1 C 57 % 64 % 1015,0 hPa 0,0 l/m 1,5 km/h (1 Bft) S-SW 1,00 h 4,8 UV-I 648 W/m 15,1 C 22,1 C 4,2 km/h (1 Bft)
05.06.2016 13:00 24,5 C 21,0 C 56 % 66 % 1014,9 hPa 0,0 l/m 5,3 km/h (1 Bft) N 0,47 h 2,3 UV-I 297 W/m 14,4 C 20,5 C 9,9 km/h (2 Bft)
05.06.2016 14:00 24,9 C 18,9 C 57 % 82 % 1014,8 hPa 0,4 l/m 2,1 km/h (1 Bft) NW 0,62 h 2,5 UV-I 343 W/m 15,8 C 18,9 C 4,4 km/h (1 Bft)
05.06.2016 15:00 24,7 C 19,2 C 58 % 84 % 1015,0 hPa 0,8 l/m 1,5 km/h (1 Bft) N 0,42 h 1,3 UV-I 177 W/m 16,3 C 19,2 C 3,3 km/h (1 Bft)
05.06.2016 16:00 24,8 C 18,4 C 58 % 86 % 1014,6 hPa 0,0 l/m 1,0 km/h (0 Bft) N-NO 0,98 h 1,4 UV-I 204 W/m 15,9 C 18,4 C 2,5 km/h (1 Bft)
05.06.2016 17:00 24,8 C 19,2 C 58 % 84 % 1014,4 hPa 0,0 l/m 1,1 km/h (0 Bft) N-NW 1,00 h 1,4 UV-I 229 W/m 16,4 C 19,2 C 2,6 km/h (1 Bft)
05.06.2016 18:00 24,9 C 20,3 C 60 % 80 % 1014,6 hPa 0,0 l/m 1,1 km/h (1 Bft) N 0,00 h 1,0 UV-I 99 W/m 16,7 C 20,3 C 3,5 km/h (1 Bft)
05.06.2016 19:00 25,1 C 20,4 C 60 % 79 % 1014,9 hPa 0,0 l/m 1,9 km/h (1 Bft) N 0,00 h 0,6 UV-I 58 W/m 16,6 C 20,4 C 3,5 km/h (1 Bft)
05.06.2016 20:00 24,8 C 18,9 C 60 % 80 % 1015,4 hPa 0,0 l/m 0,6 km/h (0 Bft) N 0,00 h 0,0 UV-I 28 W/m 15,3 C 18,9 C 1,4 km/h (1 Bft)
05.06.2016 21:00 25,1 C 17,0 C 61 % 86 % 1016,2 hPa 0,0 l/m 0,0 km/h (0 Bft) N 0,00 h 0,0 UV-I 5 W/m 14,7 C 17,0 C 0,1 km/h (0 Bft)
05.06.2016 22:00 24,9 C 15,6 C 61 % 91 % 1016,8 hPa 0,0 l/m 0,0 km/h (0 Bft) N 0,00 h 0,0 UV-I 0 W/m 14,1 C 15,6 C 0,0 km/h (0 Bft)
05.06.2016 23:00 24,8 C 14,8 C 61 % 93 % 1017,0 hPa 0,0 l/m 0,0 km/h (0 Bft) N 0,00 h 0,0 UV-I 0 W/m 13,7 C 14,8 C 0,0 km/h (0 Bft)
Min-Datum _ 02.06.16 31.05.16 31.05.16 05.06.16 30.05.16 - 30.05.16 - - - - 31.05.16 01.06.16 30.05.16
_ Min-Zeit 19:09 05:02 18:01 13:10 01:48 - 00:00 - - - - 05:02 16:48 00:00
Minimum _ 23,4 C 9,3 C 52 % 56 % 1000,9 hPa - 0,0 km/h (0 Bft) - - - - 8,8 C 9,0 C 0,0 km/h (0 Bft)
Max-Datum _ 03.06.16 05.06.16 05.06.16 31.05.16 05.06.16 01.06.16 01.06.16 - 04.06.16 31.05.16 04.06.16 05.06.16 05.06.16 01.06.16
_ Max-Zeit 22:02 13:04 07:30 08:02 23:57 17:08 16:48 - 09:42 12:28 11:40 14:43 13:04 16:49
Maximum _ 25,2 C 23,2 C 63 % 99 % 1017,2 hPa 5,8 l/m 22,5 km/h
W-SW (4 Bft)
- 0,07 h 7,6 UV-I 1151 W/m 18,1 C 23,2 C 33,8 km/h
W (5 Bft)
Durchschnitt _ 24,4 C 15,4 C 58 % 89 % 1010,1 hPa #27,6 l/m 1,0 km/h (0 Bft) S #51:02 h 2,0 UV-I 204 W/m 13,5 C 15,3 C 2,3 km/h (1 Bft)